Wind_Speed
44 34 39 34 35 35 35 34 34 34 22 32 7 32 35 54 30 34 39 40 42 43 44 42 43 40 36 36 42 38 36 28 8 16 34 37 28 40 41 44 43 43 44
40 38 33 39 36 35 36 38 34 37 35 31 31 17 14 27 18 5 11 27 39 41 43 40 42 39 38 36 39 38 39 33 22 14 29 33 35 36 36 39 40 43 46
33 38 38 38 38 39 36 33 39 40 35 40 35 33 24 13 8 3 20 25 13 43 40 42 47 42 40 36 38 37 34 35 34 25 20 28 35 36 37 36 36 38 41
29 30 32 29 33 32 35 34 40 41 34 36 30 31 35 35 24 7 4 19 19 19 35 42 43 42 43 39 35 35 33 31 29 30 22 22 32 33 33 31 30 36 39
26 26 31 30 28 26 29 39 40 33 26 38 30 32 32 37 35 27 12 1 14 18 25 40 43 40 44 43 39 36 33 30 27 26 25 24 22 19 27 33 30 33 38
28 26 26 29 33 38 45 39 30 27 33 35 30 23 26 37 34 29 22 22 12 2 15 18 34 43 47 53 55 49 45 40 34 30 28 23 31 32 32 32 31 18 8
24 22 23 26 30 31 30 30 32 34 30 31 32 31 29 34 32 31 25 25 24 22 11 2 9 8 38 43 48 53 50 48 48 40 34 33 31 36 37 31 31 28 27
29 26 26 27 28 30 28 29 29 29 30 31 31 27 26 27 33 29 24 22 21 20 23 25 18 15 13 14 31 39 50 50 51 50 41 40 39 36 42 42 41 41 35
32 31 26 27 29 27 26 26 28 27 29 32 30 29 29 30 30 29 26 24 20 20 19 22 23 22 24 8 19 26 36 41 48 53 52 42 40 40 40 40 30 25 16
29 31 28 29 29 29 28 28 28 27 25 26 26 27 29 31 28 25 28 23 22 23 19 16 17 22 21 27 16 4 18 34 35 43 49 48 42 40 38 40 35 28 25
26 27 25 28 28 28 26 27 26 27 25 22 22 24 25 26 25 25 24 23 23 21 20 22 21 18 19 19 20 20 16 12 4 26 36 38 38 47 42 37 39 34 31
25 24 25 26 27 28 27 27 25 25 22 20 21 20 22 24 25 25 23 22 21 20 21 21 21 22 19 17 15 17 15 15 12 4 11 14 22 31 35 37 36 41 42
22 24 23 24 26 27 27 27 23 25 23 21 18 20 21 25 26 27 26 25 23 21 19 18 19 19 18 15 13 11 13 16 16 17 17 14 5 7 17 24 33 37 35
18 20 22 23 24 23 24 25 22 21 21 21 20 19 21 22 25 28 27 27 25 23 21 19 18 18 16 14 15 15 13 7 10 14 14 11 7 7 5 4 12 20 25
19 20 19 20 22 23 21 21 22 22 22 23 22 23 21 22 26 27 26 24 24 23 20 18 17 20 20 19 16 14 15 12 6 6 9 10 11 8 7 6 6 5 8
20 20 22 22 23 20 22 24 21 21 22 22 22 24 26 26 28 27 24 21 21 20 17 14 15 14 14 16 17 17 15 12 9 8 7 9 8 9 9 6 6 6 8
19 19 21 23 23 21 20 19 23 25 21 23 25 26 25 27 27 24 21 19 15 15 14 14 16 16 14 13 13 13 17 14 11 8 10 11 12 10 9 11 7 5 8
22 22 21 22 21 21 20 20 21 19 23 25 23 25 27 27 26 24 21 19 17 17 16 14 14 16 16 17 15 14 13 13 12 9 8 9 12 11 11 13 14 11 9
21 22 23 22 24 22 20 18 19 18 19 20 25 26 28 31 25 24 24 19 16 16 16 16 16 17 17 17 16 15 16 14 14 13 13 12 11 10 13 15 15 16 13
21 22 21 20 23 22 18 18 19 19 19 19 19 21 28 27 25 26 27 23 20 19 18 18 18 18 19 19 19 18 18 15 14 14 15 15 16 16 15 12 15 16 14
18 20 21 18 19 19 19 19 19 19 19 20 20 22 26 23 22 23 24 24 24 24 23 22 22 21 21 21 21 20 20 18 17 17 19 18 16 16 15 14 15 16 16
17 21 21 20 20 21 19 19 20 20 19 20 23 23 25 22 23 23 26 26 25 26 27 25 23 22 21 21 20 20 20 20 19 19 19 19 18 19 17 17 17 17 17
20 20 19 19 21 20 18 19 20 21 22 22 23 21 23 23 23 25 25 28 28 26 26 26 24 22 21 20 20 19 20 21 22 21 21 21 21 21 21 21 20 17 17
21 21 21 17 18 18 17 21 22 22 20 19 21 22 22 23 24 26 26 27 28 29 28 26 25 24 22 21 21 20 19 20 20 20 19 22 23 23 22 20 19 20 19
18 19 22 18 18 20 19 21 21 22 22 22 22 23 24 25 25 24 26 27 27 28 28 28 29 30 26 22 21 20 19 19 19 20 20 20 21 22 23 22 22 21 22
16 17 17 20 18 22 21 19 22 21 22 23 22 23 23 23 24 25 28 28 26 27 28 28 29 29 29 28 26 24 20 18 17 17 17 19 21 22 22 23 24 22 22
Wind_Direction
352 356 3 7 10 22 27 28 35 37 25 12 319 220 226 228 213 191 199 199 198 201 200 202 204 204 206 210 212 210 204 199 177 201 217 216 220 223 228 234 241 243 244
358 357 358 8 10 20 25 28 31 42 38 34 43 51 157 201 254 189 336 204 204 207 203 201 205 202 207 209 212 211 210 209 205 188 206 215 219 224 230 232 235 241 245
1 3 7 3 4 12 20 26 33 40 38 43 43 35 27 77 60 99 219 280 284 211 209 205 205 202 206 210 212 214 219 221 224 223 214 218 226 226 225 230 234 237 243
0 9 9 2 8 13 15 23 35 35 30 45 43 49 30 41 42 49 202 267 284 332 226 211 215 203 204 207 209 212 217 223 223 222 214 200 214 220 223 219 223 234 241
357 1 8 12 8 13 25 30 28 28 28 44 30 41 37 33 35 29 38 180 261 285 317 221 213 212 211 208 210 213 210 212 214 214 218 207 199 197 202 218 221 229 234
4 2 6 11 11 15 21 24 17 17 22 36 32 31 35 36 31 31 40 46 48 345 273 305 221 217 223 227 224 223 216 211 219 218 220 218 218 215 214 212 211 201 224
6 10 10 18 20 20 19 18 17 19 20 23 28 24 25 32 26 29 35 46 44 48 51 59 248 303 227 226 228 230 225 221 222 219 224 222 220 213 213 205 207 211 224
5 3 10 17 22 18 18 19 18 18 19 23 26 23 26 25 26 25 28 37 42 46 35 41 40 29 26 226 227 236 227 224 223 225 222 227 223 223 221 221 223 227 229
360 358 8 18 14 15 18 15 13 18 19 20 24 25 21 24 25 23 29 25 23 33 40 41 41 30 26 43 223 228 224 224 228 228 229 227 230 232 231 223 218 206 213
2 358 4 11 9 11 14 13 12 14 17 13 13 19 19 17 25 24 17 13 17 14 21 33 28 24 17 36 43 230 248 216 221 221 224 227 227 228 228 228 224 216 222
5 3 7 6 5 8 7 8 10 10 12 11 10 11 13 9 9 9 8 5 6 360 354 358 3 5 6 22 29 42 27 356 279 212 215 222 226 229 225 229 229 221 226
3 9 5 6 3 2 2 3 9 9 6 5 8 4 2 2 1 3 1 3 1 352 345 346 342 347 346 353 14 9 25 29 31 40 191 216 230 229 231 233 234 232 231
7 8 8 5 3 2 358 356 354 3 3 1 0 357 351 356 1 1 0 357 359 349 345 340 336 336 331 335 338 349 356 21 23 25 41 51 40 271 243 240 238 229 227
13 10 3 1 0 1 3 358 349 351 354 349 347 344 343 347 352 350 352 351 348 342 342 341 343 341 339 332 325 327 328 351 14 19 21 11 6 16 358 261 243 234 234
6 4 2 356 351 349 348 350 350 358 352 344 342 341 341 340 344 346 344 338 340 336 329 332 343 350 343 348 339 322 308 316 328 1 0 348 357 9 342 330 317 276 219
0 357 356 352 353 347 343 342 350 352 356 359 356 351 351 351 347 345 344 345 336 338 333 325 326 343 340 335 327 323 318 315 323 322 301 297 324 335 325 304 304 304 292
352 354 348 351 342 341 343 343 338 341 348 353 354 354 353 349 347 352 349 343 344 345 341 327 318 321 322 324 324 321 315 333 335 319 302 290 277 282 284 293 278 278 287
355 354 349 347 346 342 342 342 339 339 339 347 352 350 350 350 349 355 359 357 352 350 341 324 313 315 319 317 318 316 317 317 317 319 322 315 297 281 266 263 265 252 248
357 350 347 346 351 350 346 343 342 346 346 344 348 353 354 352 352 352 360 357 345 340 337 325 326 321 320 322 325 320 310 308 311 308 301 296 296 298 279 264 255 248 247
355 357 350 343 347 350 348 344 343 347 351 351 349 350 349 351 355 354 353 351 347 341 336 331 326 329 325 323 322 318 311 304 301 306 293 283 281 280 275 278 262 254 242
358 355 355 354 351 348 350 348 346 349 348 352 348 353 357 351 348 349 347 350 347 341 336 337 335 332 328 322 316 312 309 304 298 290 285 285 279 276 278 276 266 267 263
360 6 5 0 356 354 354 353 349 348 346 350 350 353 358 353 350 347 349 348 350 353 353 344 338 336 328 324 316 303 295 292 292 287 283 283 275 270 268 264 264 254 249
12 12 6 0 3 358 0 1 358 352 351 352 350 350 353 352 356 350 350 355 352 350 350 352 347 345 340 327 317 309 297 285 281 282 279 276 271 267 266 259 257 245 237
13 12 9 0 357 359 357 355 355 357 354 349 353 353 353 353 354 351 350 355 353 358 359 354 350 346 346 341 332 320 307 298 289 281 274 268 262 261 257 253 252 243 238
357 3 10 5 359 356 356 4 2 0 359 356 354 354 356 358 356 353 354 354 355 354 354 357 357 354 355 355 347 336 319 299 286 277 270 264 259 257 254 253 246 242 241
350 356 360 1 1 4 360 352 359 355 352 356 356 357 358 357 356 355 353 356 355 355 357 358 359 0 1 0 356 348 337 322 303 284 269 260 254 251 249 248 247 238 233
Height
761 752 742 732 722 708 698 689 683 676 675 678 675 681 683 684 686 694 705 711 716 725 728 734 739 748 753 759 765 768 771 775 779 782 786 791 796 800 805 808 810 813 816
769 758 746 737 730 720 713 698 695 687 687 689 674 681 684 695 672 665 690 688 709 719 721 726 732 738 744 752 757 762 765 769 773 775 780 785 789 793 796 799 802 806 808
774 764 754 745 733 720 716 718 704 696 700 683 682 692 693 685 682 687 699 697 706 711 716 719 719 727 734 743 749 753 759 762 767 770 773 778 783 787 789 793 796 800 802
776 770 764 757 747 737 724 721 710 705 712 707 710 698 694 682 691 695 695 694 689 702 711 713 718 718 722 732 740 745 751 757 762 766 768 771 776 779 782 787 791 793 795
780 772 764 760 757 752 742 717 717 727 731 709 720 712 706 697 692 695 694 699 696 698 705 708 710 714 714 720 729 736 744 751 756 760 762 764 766 770 773 777 782 785 787
785 776 771 763 751 734 719 729 741 741 725 717 725 729 719 701 703 704 698 695 699 704 706 701 703 709 711 714 718 725 728 736 745 750 754 755 756 757 764 769 773 778 783
793 786 777 769 759 750 751 750 749 734 733 724 722 724 720 715 715 707 706 701 702 704 711 698 701 703 701 705 713 719 721 725 729 737 742 744 747 748 753 758 761 765 767
788 783 774 767 763 759 756 755 752 747 741 733 730 734 732 726 715 716 713 709 711 713 707 696 698 701 697 694 703 711 713 718 721 725 728 734 736 741 746 749 751 755 759
783 779 777 772 767 767 764 757 753 749 741 739 741 737 733 730 725 722 719 720 723 716 709 708 705 704 698 692 698 702 705 707 711 715 720 724 730 733 737 743 745 750 752
789 782 777 772 769 763 758 756 752 749 746 745 745 740 736 734 732 731 729 731 724 719 715 713 712 707 707 695 695 694 696 696 700 701 708 713 719 724 728 730 736 738 742
794 790 784 777 770 767 764 761 757 753 750 752 747 742 739 738 739 735 734 730 721 715 717 711 708 709 707 700 700 697 698 695 690 692 694 702 708 712 716 720 725 728 731
797 793 788 783 777 771 766 762 761 759 757 755 749 750 747 744 738 733 732 726 719 715 716 708 706 702 704 702 697 699 697 692 688 694 688 695 700 704 704 710 716 718 721
800 796 792 788 782 775 768 764 761 758 757 754 753 750 747 740 733 730 725 721 717 718 714 709 708 705 703 701 702 700 695 691 693 695 688 690 697 701 702 704 708 711 713
802 799 797 792 787 783 776 769 766 761 758 754 751 748 743 738 733 731 725 720 720 718 713 709 706 705 703 701 700 698 703 695 692 692 692 698 700 699 702 703 705 705 707
800 798 797 794 790 783 779 774 768 763 760 757 752 745 740 736 734 730 726 723 719 716 712 708 705 702 701 699 700 702 706 699 691 687 692 699 699 700 702 703 704 705 704
800 796 792 790 788 784 778 772 770 767 762 757 752 749 743 740 736 730 726 720 718 712 708 706 706 704 704 705 705 705 706 696 690 688 689 696 697 699 702 704 704 704 706
801 798 794 790 785 781 778 775 768 765 762 759 756 751 745 744 740 734 728 723 718 716 712 709 706 706 707 707 705 701 700 690 687 687 691 693 696 698 700 701 703 702 705
802 798 795 792 787 782 777 773 770 765 759 755 753 749 746 743 738 733 727 721 717 715 713 712 711 712 707 703 697 697 695 694 693 691 689 690 695 694 695 698 702 701 701
803 799 795 791 786 780 775 772 770 766 762 756 751 747 742 736 731 728 724 721 719 715 711 712 707 705 704 701 695 692 692 691 689 687 687 690 692 693 694 694 697 700 699
803 800 795 790 785 780 777 773 769 765 762 757 753 749 743 737 731 725 721 717 714 713 710 707 705 699 695 692 689 689 689 685 684 684 685 688 690 690 692 690 691 696 696
803 799 795 791 786 782 778 774 770 765 762 757 753 749 745 739 733 729 725 720 714 709 705 700 697 693 691 688 686 686 686 683 681 682 684 684 685 687 686 686 686 689 692
805 800 796 792 788 784 780 776 771 767 763 758 752 749 746 742 736 731 725 720 715 710 706 702 696 693 691 690 689 687 684 682 680 678 678 677 679 681 681 682 684 685 686
806 802 797 793 789 785 781 778 773 768 763 758 756 753 749 744 737 733 727 723 718 711 705 702 698 693 692 689 687 685 682 679 677 677 674 674 674 674 677 679 679 679 680
807 803 799 795 792 788 784 779 775 771 767 764 759 755 750 745 738 735 731 725 720 714 710 705 702 697 691 686 683 679 676 674 672 670 669 668 668 669 669 671 673 674 675
808 804 800 797 793 789 785 781 777 773 769 764 759 754 749 744 741 739 733 727 722 717 711 704 700 695 690 683 680 677 672 669 667 665 663 662 661 663 665 666 667 667 671
807 804 801 798 794 790 786 782 778 774 770 766 762 757 753 749 744 739 733 729 725 719 711 705 700 695 689 682 674 670 666 663 660 659 657 656 656 656 659 661 663 662 663